VAT311 ROAH-VHHH

Flight info

Callsign VAT311
Flight time 2h 1m
Altitude 38000
Route GANJU Y576 LILRA Y573 SEDKU R595 APU A1 ELATO V522 ABBEY
Aircraft B77W/H-SDE1E2E3FGHIJ2J3J4J5M1RWXY/LB1D1

Departure

Time 2026-04-17 11:50
Airport Naha International Airport (ROAH)

Arrival

Time 2026-04-17 13:51
Airport Hong Kong International Airport (VHHH)
Time Latitude Longitude Altitude Speed Heading
2026-04-17 11:32 26.20829 127.64843 31 ft 0 kts 132°
2026-04-17 11:36 26.20830 127.64843 31 ft 0 kts 132°
2026-04-17 11:37 26.20830 127.64842 26 ft 0 kts 132°
2026-04-17 11:43 26.20842 127.64829 31 ft 2 kts 139°
2026-04-17 11:44 26.20854 127.64818 30 ft 2 kts 147°
2026-04-17 11:44 26.20869 127.64809 30 ft 2 kts 160°
2026-04-17 11:44 26.20885 127.64804 27 ft 2 kts 176°
2026-04-17 11:44 26.20901 127.64806 26 ft 2 kts 197°
2026-04-17 11:45 26.20916 127.64813 28 ft 2 kts 220°
2026-04-17 11:45 26.20926 127.64827 28 ft 2 kts 271°
2026-04-17 11:45 26.20929 127.64845 29 ft 2 kts 244°
2026-04-17 11:45 26.20938 127.64860 30 ft 2 kts 222°
2026-04-17 11:46 26.20952 127.64869 29 ft 2 kts 196°
2026-04-17 11:46 26.20968 127.64873 30 ft 2 kts 185°
2026-04-17 11:46 26.20984 127.64874 30 ft 2 kts 176°
2026-04-17 11:46 26.20992 127.64873 30 ft 0 kts 178°
2026-04-17 11:47 26.20991 127.64873 30 ft 1 kts 177°
2026-04-17 11:47 26.20965 127.64876 30 ft 5 kts 176°
2026-04-17 11:48 26.20924 127.64857 30 ft 7 kts 232°
2026-04-17 11:48 26.20914 127.64795 27 ft 11 kts 263°
2026-04-17 11:48 26.20903 127.64683 22 ft 16 kts 266°
2026-04-17 11:48 26.20899 127.64560 26 ft 10 kts 268°
2026-04-17 11:49 26.20872 127.64534 27 ft 6 kts 194°
2026-04-17 11:49 26.20825 127.64530 26 ft 7 kts 179°
2026-04-17 11:49 26.20686 127.64537 26 ft 43 kts 176°
2026-04-17 11:49 26.20099 127.64560 22 ft 124 kts 178°
2026-04-17 11:50 26.19034 127.64619 111 ft 176 kts 173°
2026-04-17 11:50 26.17786 127.64708 768 ft 181 kts 173°
2026-04-17 11:50 26.16525 127.64789 1633 ft 183 kts 175°
2026-04-17 11:50 26.15250 127.64893 2282 ft 191 kts 179°
2026-04-17 11:51 26.13833 127.64864 2651 ft 215 kts 179°
2026-04-17 11:51 26.12221 127.64875 2839 ft 245 kts 187°
2026-04-17 11:51 26.10531 127.64413 3407 ft 259 kts 198°
2026-04-17 11:51 26.08898 127.63581 4182 ft 260 kts 222°
2026-04-17 11:52 26.07900 127.61912 4971 ft 261 kts 256°
2026-04-17 11:52 26.07491 127.59955 5834 ft 263 kts 257°
2026-04-17 11:52 26.07050 127.57956 6731 ft 266 kts 257°
2026-04-17 11:52 26.06604 127.55972 7613 ft 267 kts 257°
2026-04-17 11:53 26.06156 127.53983 8465 ft 270 kts 258°
2026-04-17 11:53 26.05696 127.51944 9318 ft 273 kts 258°
2026-04-17 11:53 26.05230 127.49889 10178 ft 276 kts 258°
2026-04-17 11:53 26.04748 127.47759 10663 ft 295 kts 258°
2026-04-17 11:54 26.04221 127.45433 10864 ft 324 kts 258°
2026-04-17 11:54 26.03645 127.42898 11081 ft 351 kts 257°
2026-04-17 11:54 26.03033 127.40218 11716 ft 362 kts 257°
2026-04-17 11:54 26.02403 127.37474 12596 ft 369 kts 257°
2026-04-17 11:55 26.01770 127.34732 13573 ft 372 kts 257°
2026-04-17 11:55 26.01120 127.31925 14452 ft 376 kts 256°
2026-04-17 11:55 26.00464 127.29093 15289 ft 381 kts 256°
2026-04-17 11:55 25.99797 127.26217 16091 ft 386 kts 256°
2026-04-17 11:56 25.99123 127.23312 16929 ft 391 kts 255°
2026-04-17 11:56 25.98441 127.20373 17778 ft 394 kts 255°
2026-04-17 11:56 25.97751 127.17401 18551 ft 399 kts 255°
2026-04-17 11:56 25.97053 127.14399 19270 ft 402 kts 255°
2026-04-17 11:57 25.96351 127.11380 19999 ft 405 kts 255°
2026-04-17 11:57 25.95643 127.08340 20722 ft 408 kts 255°
2026-04-17 11:57 25.94931 127.05281 21427 ft 411 kts 255°
2026-04-17 11:57 25.94211 127.02194 22105 ft 415 kts 255°
2026-04-17 11:58 25.93520 126.99231 22731 ft 418 kts 255°
2026-04-17 11:58 25.92786 126.96086 23389 ft 422 kts 255°
2026-04-17 11:58 25.92047 126.92925 23943 ft 425 kts 255°
2026-04-17 11:58 25.91300 126.89735 24470 ft 428 kts 255°
2026-04-17 11:59 25.90548 126.86522 25005 ft 430 kts 255°
2026-04-17 11:59 25.89792 126.83289 25516 ft 433 kts 255°
2026-04-17 11:59 25.89030 126.80044 26018 ft 436 kts 255°
2026-04-17 11:59 25.88259 126.76772 26507 ft 438 kts 255°
2026-04-17 12:00 25.87343 126.73578 26988 ft 441 kts 250°
2026-04-17 12:00 25.86165 126.70419 27485 ft 444 kts 246°
2026-04-17 12:00 25.84743 126.67368 27960 ft 447 kts 242°
2026-04-17 12:00 25.83194 126.64372 28389 ft 450 kts 241°
2026-04-17 12:01 25.81619 126.61354 28778 ft 453 kts 241°
2026-04-17 12:01 25.80035 126.58316 29175 ft 456 kts 241°
2026-04-17 12:01 25.78444 126.55254 29554 ft 458 kts 241°
2026-04-17 12:01 25.76857 126.52186 29928 ft 460 kts 241°
2026-04-17 12:02 25.75268 126.49106 30333 ft 459 kts 241°
2026-04-17 12:02 25.73685 126.46032 30767 ft 458 kts 241°
2026-04-17 12:02 25.72107 126.42969 31197 ft 457 kts 241°
2026-04-17 12:02 25.70528 126.39905 31594 ft 457 kts 241°
2026-04-17 12:03 25.68953 126.36850 32046 ft 456 kts 241°
2026-04-17 12:03 25.67381 126.33804 32447 ft 455 kts 241°
2026-04-17 12:03 25.65809 126.30760 32853 ft 454 kts 241°
2026-04-17 12:03 25.64240 126.27723 33269 ft 454 kts 242°
2026-04-17 12:04 25.62672 126.24693 33670 ft 453 kts 242°
2026-04-17 12:04 25.61105 126.21664 34087 ft 452 kts 242°
2026-04-17 12:04 25.59543 126.18647 34460 ft 450 kts 242°
2026-04-17 12:04 25.57985 126.15641 34765 ft 450 kts 241°
2026-04-17 12:05 25.56444 126.12668 35070 ft 450 kts 241°
2026-04-17 12:05 25.54887 126.09666 35410 ft 449 kts 241°
2026-04-17 12:05 25.53332 126.06670 35783 ft 448 kts 241°
2026-04-17 12:05 25.51783 126.03687 36106 ft 447 kts 241°
2026-04-17 12:06 25.50233 126.00703 36426 ft 446 kts 241°
2026-04-17 12:06 25.48756 125.97860 36739 ft 445 kts 241°
2026-04-17 12:06 25.47211 125.94888 37071 ft 444 kts 241°
2026-04-17 12:06 25.45670 125.91924 37372 ft 443 kts 241°
2026-04-17 12:07 25.44648 125.89962 37588 ft 443 kts 241°
2026-04-17 12:07 25.43109 125.87014 37871 ft 443 kts 241°
2026-04-17 12:07 25.39472 125.80061 37959 ft 447 kts 240°
2026-04-17 12:08 25.36891 125.75122 37959 ft 443 kts 240°
2026-04-17 12:08 25.33805 125.69249 37942 ft 440 kts 240°
2026-04-17 12:09 25.30700 125.63442 37961 ft 438 kts 240°
2026-04-17 12:09 25.27603 125.57655 37963 ft 438 kts 240°
2026-04-17 12:10 25.24527 125.51896 37947 ft 439 kts 240°
2026-04-17 12:10 25.21415 125.46070 37967 ft 441 kts 240°
2026-04-17 12:11 25.18290 125.40225 37966 ft 443 kts 240°
2026-04-17 12:12 25.13574 125.31412 37964 ft 445 kts 240°
2026-04-17 12:12 25.10398 125.25531 37960 ft 446 kts 238°
2026-04-17 12:13 25.06760 125.19986 37945 ft 446 kts 234°
2026-04-17 12:13 25.03004 125.14526 37950 ft 446 kts 234°
2026-04-17 12:14 24.99310 125.09098 37945 ft 445 kts 234°
2026-04-17 12:14 24.95408 125.03790 37946 ft 445 kts 232°
2026-04-17 12:15 24.91504 124.98615 37959 ft 445 kts 232°
2026-04-17 12:15 24.87583 124.93339 37945 ft 445 kts 232°
2026-04-17 12:16 24.84460 124.87635 37963 ft 439 kts 252°
2026-04-17 12:16 24.83559 124.81002 37950 ft 443 kts 272°
2026-04-17 12:17 24.84374 124.74258 37974 ft 446 kts 275°
2026-04-17 12:17 24.85281 124.67480 37959 ft 449 kts 275°
2026-04-17 12:18 24.86141 124.60660 37957 ft 450 kts 274°
2026-04-17 12:18 24.86969 124.53815 37954 ft 451 kts 274°
2026-04-17 12:19 24.87782 124.47005 37972 ft 451 kts 274°
2026-04-17 12:19 24.88596 124.40167 37959 ft 450 kts 274°
2026-04-17 12:20 24.89406 124.33353 37955 ft 448 kts 274°
2026-04-17 12:20 24.90212 124.26547 37974 ft 447 kts 274°
2026-04-17 12:21 24.91013 124.19760 37982 ft 446 kts 274°
2026-04-17 12:21 24.91812 124.12988 37968 ft 445 kts 274°
2026-04-17 12:22 24.92600 124.06239 37969 ft 444 kts 273°
2026-04-17 12:22 24.92420 123.99624 37985 ft 439 kts 259°
2026-04-17 12:23 24.90900 123.93174 37953 ft 437 kts 248°
2026-04-17 12:23 24.88572 123.86977 37982 ft 438 kts 247°
2026-04-17 12:24 24.86189 123.80779 37980 ft 440 kts 247°
2026-04-17 12:24 24.83823 123.74537 37966 ft 442 kts 247°
2026-04-17 12:25 24.81471 123.68266 37971 ft 443 kts 247°
2026-04-17 12:25 24.79125 123.61994 37971 ft 443 kts 247°
2026-04-17 12:26 24.76777 123.55725 37967 ft 443 kts 247°
2026-04-17 12:26 24.74426 123.49460 37976 ft 443 kts 247°
2026-04-17 12:27 24.72072 123.43199 37956 ft 443 kts 247°
2026-04-17 12:27 24.69716 123.36939 37975 ft 442 kts 247°
2026-04-17 12:28 24.67360 123.30691 37979 ft 442 kts 247°
2026-04-17 12:28 24.65014 123.24477 37979 ft 442 kts 247°
2026-04-17 12:29 24.62653 123.18234 37954 ft 442 kts 247°
2026-04-17 12:29 24.60293 123.12000 37951 ft 442 kts 247°
2026-04-17 12:30 24.57929 123.05769 37941 ft 442 kts 247°
2026-04-17 12:30 24.55609 122.99659 37941 ft 442 kts 247°
2026-04-17 12:31 24.53238 122.93425 37940 ft 442 kts 247°
2026-04-17 12:31 24.50863 122.87190 37957 ft 442 kts 247°
2026-04-17 12:32 24.48503 122.81002 37981 ft 442 kts 247°
2026-04-17 12:32 24.46127 122.74781 37963 ft 442 kts 247°
2026-04-17 12:33 24.43749 122.68565 37959 ft 441 kts 247°
2026-04-17 12:33 24.41369 122.62355 37976 ft 441 kts 247°
2026-04-17 12:34 24.38991 122.56154 37972 ft 441 kts 247°
2026-04-17 12:34 24.36625 122.49996 37971 ft 440 kts 247°
2026-04-17 12:35 24.34247 122.43816 37982 ft 439 kts 247°
2026-04-17 12:35 24.31868 122.37642 37975 ft 439 kts 247°
2026-04-17 12:37 24.22327 122.12968 37967 ft 440 kts 247°
2026-04-17 12:38 24.19931 122.06792 37999 ft 441 kts 247°
2026-04-17 12:38 24.17525 122.00601 37977 ft 441 kts 247°
2026-04-17 12:39 24.15179 121.94571 37980 ft 441 kts 247°
2026-04-17 12:39 24.12765 121.88378 37983 ft 441 kts 247°
2026-04-17 12:40 24.10353 121.82196 37972 ft 441 kts 246°
2026-04-17 12:40 24.07940 121.76023 37989 ft 441 kts 247°
2026-04-17 12:41 24.05538 121.69884 38001 ft 441 kts 247°
2026-04-17 12:41 24.03122 121.63720 38008 ft 440 kts 247°
2026-04-17 12:42 24.00708 121.57568 38027 ft 440 kts 247°
2026-04-17 12:42 23.98295 121.51427 38013 ft 438 kts 247°
2026-04-17 12:43 23.95888 121.45300 38035 ft 439 kts 248°
2026-04-17 12:43 23.93460 121.39154 37987 ft 441 kts 247°
2026-04-17 12:44 23.91047 121.33045 38043 ft 441 kts 247°
2026-04-17 12:44 23.88611 121.26870 38054 ft 443 kts 247°
2026-04-17 12:45 23.86153 121.20652 38046 ft 446 kts 247°
2026-04-17 12:45 23.83683 121.14419 38020 ft 448 kts 246°
2026-04-17 12:46 23.81202 121.08169 38040 ft 448 kts 246°
2026-04-17 12:46 23.78739 121.01973 38026 ft 448 kts 246°
2026-04-17 12:47 23.76312 120.95871 38014 ft 445 kts 246°
2026-04-17 12:47 23.73846 120.89685 38011 ft 443 kts 246°
2026-04-17 12:48 23.71383 120.83515 38005 ft 443 kts 246°
2026-04-17 12:48 23.68925 120.77359 38012 ft 442 kts 246°
2026-04-17 12:49 23.66466 120.71213 37994 ft 442 kts 246°
2026-04-17 12:49 23.64003 120.65066 37991 ft 442 kts 246°
2026-04-17 12:50 23.61548 120.58946 37976 ft 443 kts 246°
2026-04-17 12:50 23.59079 120.52800 37973 ft 443 kts 246°
2026-04-17 12:51 23.56599 120.46637 37956 ft 444 kts 246°
2026-04-17 12:51 23.54116 120.40472 37964 ft 444 kts 246°
2026-04-17 12:52 23.51629 120.34304 37963 ft 444 kts 246°
2026-04-17 12:52 23.49137 120.28136 37956 ft 444 kts 246°
2026-04-17 12:53 23.46647 120.21979 37955 ft 444 kts 246°
2026-04-17 12:53 23.44171 120.15865 37960 ft 444 kts 246°
2026-04-17 12:54 23.41678 120.09717 37967 ft 444 kts 246°
2026-04-17 12:54 23.39183 120.03573 37968 ft 443 kts 246°
2026-04-17 12:55 23.36733 119.97547 37976 ft 443 kts 246°
2026-04-17 12:55 23.34237 119.91418 37968 ft 443 kts 246°
2026-04-17 12:56 23.31743 119.85301 37966 ft 442 kts 245°
2026-04-17 12:56 23.29666 119.80212 37966 ft 442 kts 246°
2026-04-17 12:57 23.27165 119.74094 37958 ft 443 kts 246°
2026-04-17 12:57 23.24661 119.67975 37962 ft 442 kts 246°
2026-04-17 12:58 23.22156 119.61860 37962 ft 442 kts 245°
2026-04-17 12:58 23.19650 119.55753 37961 ft 443 kts 245°
2026-04-17 12:59 23.17137 119.49638 37977 ft 443 kts 245°
2026-04-17 12:59 23.14636 119.43557 37968 ft 444 kts 245°
2026-04-17 13:00 23.12114 119.37436 37973 ft 444 kts 245°
2026-04-17 13:00 23.09589 119.31314 37976 ft 444 kts 245°
2026-04-17 13:01 23.07062 119.25194 37975 ft 444 kts 245°
2026-04-17 13:01 23.04531 119.19074 37986 ft 444 kts 245°
2026-04-17 13:02 23.01998 119.12958 37956 ft 444 kts 245°
2026-04-17 13:02 22.99469 119.06857 37972 ft 444 kts 245°
2026-04-17 13:03 22.96932 119.00748 37978 ft 444 kts 245°
2026-04-17 13:03 22.94437 118.94746 37989 ft 445 kts 245°
2026-04-17 13:04 22.91905 118.88662 37982 ft 445 kts 245°
2026-04-17 13:04 22.89352 118.82535 37980 ft 445 kts 245°
2026-04-17 13:05 22.86796 118.76411 37979 ft 445 kts 245°
2026-04-17 13:05 22.84240 118.70293 37978 ft 445 kts 245°
2026-04-17 13:06 22.81682 118.64179 37973 ft 445 kts 245°
2026-04-17 13:06 22.79123 118.58070 37977 ft 445 kts 245°
2026-04-17 13:07 22.76576 118.51998 37972 ft 445 kts 245°
2026-04-17 13:07 22.74007 118.45882 37977 ft 445 kts 245°
2026-04-17 13:08 22.71439 118.39775 37978 ft 446 kts 245°
2026-04-17 13:08 22.68868 118.33667 37986 ft 446 kts 246°
2026-04-17 13:09 22.66291 118.27553 37974 ft 446 kts 246°
2026-04-17 13:09 22.63715 118.21452 37971 ft 445 kts 246°
2026-04-17 13:10 22.61141 118.15361 37972 ft 445 kts 246°
2026-04-17 13:10 22.58561 118.09267 37972 ft 445 kts 245°
2026-04-17 13:11 22.55999 118.03221 37977 ft 445 kts 246°
2026-04-17 13:11 22.53464 117.97242 37970 ft 444 kts 246°
2026-04-17 13:12 22.50885 117.91167 37972 ft 444 kts 246°
2026-04-17 13:12 22.47013 117.82062 37966 ft 444 kts 246°
2026-04-17 13:13 22.44428 117.75994 37963 ft 444 kts 246°
2026-04-17 13:13 22.41841 117.69928 37962 ft 444 kts 245°
2026-04-17 13:14 22.39254 117.63859 37969 ft 445 kts 245°
2026-04-17 13:14 22.36675 117.57819 37971 ft 446 kts 245°
2026-04-17 13:15 22.34406 117.51598 37968 ft 446 kts 255°
2026-04-17 13:15 22.33241 117.45023 37977 ft 447 kts 263°
2026-04-17 13:16 22.33019 117.38308 37976 ft 447 kts 268°
2026-04-17 13:16 22.32946 117.31585 37969 ft 447 kts 268°
2026-04-17 13:17 22.32857 117.24867 37969 ft 447 kts 268°
2026-04-17 13:17 22.32741 117.18154 37969 ft 447 kts 267°
2026-04-17 13:18 22.32613 117.11490 37969 ft 446 kts 267°
2026-04-17 13:18 22.32481 117.04798 37970 ft 445 kts 267°
2026-04-17 13:19 22.32348 116.98219 37968 ft 444 kts 267°
2026-04-17 13:19 22.32212 116.91557 37969 ft 444 kts 267°
2026-04-17 13:20 22.32076 116.84895 37976 ft 443 kts 267°
2026-04-17 13:20 22.31938 116.78232 37955 ft 443 kts 267°
2026-04-17 13:21 22.31795 116.71615 37967 ft 443 kts 267°
2026-04-17 13:21 22.31648 116.64964 37970 ft 444 kts 267°
2026-04-17 13:22 22.31498 116.58290 37967 ft 444 kts 267°
2026-04-17 13:22 22.31345 116.51619 37971 ft 445 kts 267°
2026-04-17 13:23 22.31189 116.44942 37966 ft 445 kts 267°
2026-04-17 13:23 22.31031 116.38254 37565 ft 447 kts 267°
2026-04-17 13:24 22.30951 116.34899 37120 ft 443 kts 267°
2026-04-17 13:24 22.30868 116.31582 36620 ft 439 kts 267°
2026-04-17 13:24 22.30787 116.28307 36132 ft 434 kts 266°
2026-04-17 13:24 22.30706 116.25064 35592 ft 431 kts 266°
2026-04-17 13:25 22.30627 116.21877 35071 ft 428 kts 266°
2026-04-17 13:25 22.30548 116.18665 34550 ft 426 kts 266°
2026-04-17 13:25 22.30469 116.15468 34033 ft 424 kts 266°
2026-04-17 13:25 22.30391 116.12298 33454 ft 422 kts 266°
2026-04-17 13:26 22.30312 116.09139 32878 ft 420 kts 266°
2026-04-17 13:26 22.30233 116.06004 32308 ft 416 kts 266°
2026-04-17 13:26 22.30152 116.02888 31759 ft 414 kts 266°
2026-04-17 13:26 22.30076 115.99868 31232 ft 412 kts 266°
2026-04-17 13:27 22.29997 115.96826 30711 ft 410 kts 266°
2026-04-17 13:27 22.29916 115.93752 30194 ft 409 kts 266°
2026-04-17 13:27 22.29833 115.90693 29615 ft 407 kts 267°
2026-04-17 13:27 22.29751 115.87641 29006 ft 405 kts 267°
2026-04-17 13:28 22.29669 115.84616 28420 ft 402 kts 267°
2026-04-17 13:28 22.29587 115.81606 27848 ft 400 kts 267°
2026-04-17 13:28 22.29508 115.78616 27278 ft 398 kts 267°
2026-04-17 13:28 22.29431 115.75639 26722 ft 396 kts 267°
2026-04-17 13:29 22.29353 115.72673 26177 ft 393 kts 267°
2026-04-17 13:29 22.29274 115.69731 25636 ft 391 kts 267°
2026-04-17 13:29 22.29196 115.66839 25121 ft 389 kts 267°
2026-04-17 13:29 22.29117 115.63928 24609 ft 387 kts 267°
2026-04-17 13:30 22.29038 115.61033 24105 ft 385 kts 267°
2026-04-17 13:30 22.28959 115.58149 23607 ft 383 kts 267°
2026-04-17 13:30 22.28880 115.55283 23019 ft 381 kts 267°
2026-04-17 13:30 22.28801 115.52436 22429 ft 379 kts 267°
2026-04-17 13:31 22.28721 115.49598 21862 ft 377 kts 267°
2026-04-17 13:31 22.28642 115.46775 21304 ft 375 kts 268°
2026-04-17 13:31 22.28562 115.43942 20723 ft 379 kts 268°
2026-04-17 13:31 22.28480 115.41070 20278 ft 386 kts 268°
2026-04-17 13:32 22.28397 115.38153 19876 ft 390 kts 268°
2026-04-17 13:32 22.28313 115.35244 19472 ft 395 kts 268°
2026-04-17 13:32 22.28227 115.32269 19105 ft 398 kts 268°
2026-04-17 13:32 22.28137 115.29294 18907 ft 395 kts 268°
2026-04-17 13:33 22.28046 115.26340 18731 ft 392 kts 268°
2026-04-17 13:33 22.27955 115.23399 18410 ft 393 kts 268°
2026-04-17 13:33 22.27864 115.20446 17925 ft 393 kts 268°
2026-04-17 13:33 22.27772 115.17511 17408 ft 390 kts 268°
2026-04-17 13:34 22.27681 115.14598 16940 ft 386 kts 268°
2026-04-17 13:34 22.27591 115.11716 16471 ft 382 kts 268°
2026-04-17 13:34 22.27537 115.08858 15993 ft 379 kts 271°
2026-04-17 13:34 22.27768 115.06028 15507 ft 377 kts 279°
2026-04-17 13:35 22.28246 115.03254 15047 ft 375 kts 280°
2026-04-17 13:35 22.28728 115.00486 14584 ft 373 kts 280°
2026-04-17 13:35 22.29183 114.97828 14138 ft 372 kts 280°
2026-04-17 13:35 22.29650 114.95086 13679 ft 371 kts 280°
2026-04-17 13:36 22.30112 114.92353 13167 ft 369 kts 280°
2026-04-17 13:36 22.30570 114.89629 12666 ft 368 kts 280°
2026-04-17 13:36 22.31024 114.86918 12177 ft 366 kts 279°
2026-04-17 13:36 22.31470 114.84252 11695 ft 364 kts 279°
2026-04-17 13:37 22.31924 114.81534 11214 ft 362 kts 279°
2026-04-17 13:37 22.32364 114.78894 10757 ft 360 kts 279°
2026-04-17 13:37 22.32807 114.76234 10281 ft 358 kts 278°
2026-04-17 13:37 22.33245 114.73596 9820 ft 356 kts 278°
2026-04-17 13:38 22.33680 114.70972 9301 ft 354 kts 278°
2026-04-17 13:38 22.34113 114.68355 8818 ft 352 kts 279°
2026-04-17 13:38 22.34543 114.65762 8335 ft 350 kts 279°
2026-04-17 13:38 22.34969 114.63185 7849 ft 348 kts 279°
2026-04-17 13:39 22.35393 114.60618 7378 ft 346 kts 279°
2026-04-17 13:39 22.35815 114.58065 6926 ft 341 kts 279°
2026-04-17 13:39 22.36217 114.55630 6622 ft 323 kts 279°
2026-04-17 13:39 22.36599 114.53270 6391 ft 315 kts 279°
2026-04-17 13:40 22.36965 114.50996 6141 ft 308 kts 279°
2026-04-17 13:40 22.37332 114.48741 5881 ft 301 kts 279°
2026-04-17 13:40 22.37697 114.46536 5627 ft 295 kts 280°
2026-04-17 13:40 22.38055 114.44415 5343 ft 277 kts 280°
2026-04-17 13:41 22.38393 114.42390 5111 ft 272 kts 280°
2026-04-17 13:41 22.38725 114.40390 4866 ft 269 kts 280°
2026-04-17 13:41 22.39049 114.38417 4636 ft 266 kts 279°
2026-04-17 13:41 22.39367 114.36478 4552 ft 258 kts 279°
2026-04-17 13:42 22.39678 114.34577 4499 ft 254 kts 280°
2026-04-17 13:42 22.39977 114.32744 4480 ft 242 kts 279°
2026-04-17 13:42 22.40170 114.31583 4467 ft 232 kts 281°
2026-04-17 13:42 22.40468 114.29928 4474 ft 215 kts 281°
2026-04-17 13:43 22.40744 114.28420 4520 ft 195 kts 281°
2026-04-17 13:43 22.41006 114.26981 4500 ft 196 kts 281°
2026-04-17 13:43 22.41266 114.25551 4504 ft 192 kts 281°
2026-04-17 13:43 22.41523 114.24138 4497 ft 191 kts 281°
2026-04-17 13:44 22.41778 114.22730 4503 ft 190 kts 281°
2026-04-17 13:44 22.42032 114.21334 4507 ft 189 kts 281°
2026-04-17 13:44 22.42245 114.19943 4489 ft 186 kts 270°
2026-04-17 13:44 22.41927 114.18593 4431 ft 187 kts 250°
2026-04-17 13:45 22.41476 114.17241 4386 ft 194 kts 251°
2026-04-17 13:45 22.41032 114.15855 4208 ft 195 kts 251°
2026-04-17 13:45 22.40603 114.14511 4089 ft 188 kts 252°
2026-04-17 13:45 22.40173 114.13169 3964 ft 190 kts 252°
2026-04-17 13:46 22.39741 114.11818 3849 ft 191 kts 251°
2026-04-17 13:46 22.39298 114.10435 3488 ft 195 kts 252°
2026-04-17 13:46 22.38852 114.09050 3180 ft 195 kts 251°
2026-04-17 13:46 22.38409 114.07658 2837 ft 194 kts 253°
2026-04-17 13:47 22.37994 114.06322 2699 ft 178 kts 252°
2026-04-17 13:47 22.37589 114.05044 2581 ft 186 kts 251°
2026-04-17 13:47 22.37164 114.03724 2340 ft 182 kts 251°
2026-04-17 13:47 22.36760 114.02477 2093 ft 169 kts 252°
2026-04-17 13:48 22.36388 114.01323 1857 ft 154 kts 253°
2026-04-17 13:48 22.36052 114.00284 1704 ft 145 kts 247°
2026-04-17 13:48 22.35710 113.99292 1534 ft 150 kts 253°
2026-04-17 13:48 22.35378 113.98204 1326 ft 148 kts 252°
2026-04-17 13:49 22.35046 113.97157 1127 ft 146 kts 252°
2026-04-17 13:49 22.34712 113.96124 955 ft 149 kts 249°
2026-04-17 13:49 22.34347 113.95080 756 ft 146 kts 250°
2026-04-17 13:49 22.34032 113.94059 581 ft 140 kts 250°
2026-04-17 13:50 22.33709 113.93058 409 ft 143 kts 250°
2026-04-17 13:50 22.33382 113.92025 205 ft 147 kts 250°
2026-04-17 13:50 22.33044 113.90973 50 ft 146 kts 250°
2026-04-17 13:50 22.32746 113.90032 41 ft 116 kts 251°
2026-04-17 13:51 22.32530 113.89366 41 ft 72 kts 251°
2026-04-17 13:51 22.32401 113.88982 41 ft 45 kts 243°
2026-04-17 13:51 22.32246 113.88787 41 ft 26 kts 220°
2026-04-17 13:51 22.32174 113.88789 41 ft 5 kts 101°
2026-04-17 13:52 22.32190 113.88879 41 ft 18 kts 70°
2026-04-17 13:52 22.32233 113.89008 41 ft 18 kts 71°
2026-04-17 13:52 22.32274 113.89137 41 ft 18 kts 71°
2026-04-17 13:52 22.32316 113.89267 41 ft 18 kts 71°
2026-04-17 13:53 22.32357 113.89395 41 ft 18 kts 71°
2026-04-17 13:53 22.32398 113.89521 41 ft 18 kts 70°
2026-04-17 13:53 22.32440 113.89647 41 ft 18 kts 70°
2026-04-17 13:53 22.32481 113.89774 41 ft 18 kts 70°
2026-04-17 13:54 22.32562 113.90027 41 ft 18 kts 71°
2026-04-17 13:54 22.32603 113.90153 41 ft 18 kts 71°
2026-04-17 13:55 22.32685 113.90407 40 ft 18 kts 71°
2026-04-17 13:55 22.32725 113.90533 40 ft 18 kts 71°
2026-04-17 13:55 22.32808 113.90787 40 ft 18 kts 70°
2026-04-17 13:56 22.32890 113.91041 40 ft 18 kts 71°
2026-04-17 13:56 22.32930 113.91168 40 ft 18 kts 71°
2026-04-17 13:56 22.32970 113.91293 40 ft 18 kts 71°
2026-04-17 13:57 22.33010 113.91422 40 ft 18 kts 71°
2026-04-17 13:57 22.33052 113.91546 40 ft 18 kts 70°
2026-04-17 13:57 22.33134 113.91799 40 ft 18 kts 71°
2026-04-17 13:58 22.33175 113.91926 40 ft 18 kts 71°
2026-04-17 13:58 22.33191 113.92113 39 ft 11 kts 156°
2026-04-17 13:58 22.33058 113.92161 40 ft 23 kts 161°
2026-04-17 13:59 22.32761 113.92273 40 ft 22 kts 161°
2026-04-17 13:59 22.32613 113.92329 40 ft 23 kts 161°
2026-04-17 13:59 22.32465 113.92385 40 ft 23 kts 161°
2026-04-17 14:00 22.32316 113.92441 40 ft 23 kts 161°
2026-04-17 14:00 22.32251 113.92515 40 ft 16 kts 86°
2026-04-17 14:00 22.32269 113.92625 40 ft 10 kts 114°
2026-04-17 14:00 22.32184 113.92684 40 ft 19 kts 160°
2026-04-17 14:01 22.32060 113.92731 40 ft 19 kts 161°
2026-04-17 14:01 22.31937 113.92777 40 ft 19 kts 159°
2026-04-17 14:01 22.31816 113.92832 40 ft 19 kts 155°
2026-04-17 14:01 22.31696 113.92882 40 ft 19 kts 161°
2026-04-17 14:02 22.31572 113.92929 40 ft 18 kts 160°
2026-04-17 14:02 22.31490 113.92988 40 ft 12 kts 153°
2026-04-17 14:02 22.31461 113.92999 40 ft 2 kts 161°
2026-04-17 14:02 22.31456 113.93000 40 ft 0 kts 161°